C6023 KFMH-KFMH

Flight info

Callsign C6023
Flight time N/A
Altitude 2000
Route VFR
Aircraft H60/M-VGD/C

Departure

Time 2026-04-30 21:12
Airport Cape Cod Coast Guard Air Station (KFMH)

Arrival

Time N/A
Airport Cape Cod Coast Guard Air Station (KFMH)
Time Latitude Longitude Altitude Speed Heading
2026-04-30 20:52 41.66461 -70.52183 128 ft 0 kts 175°
2026-04-30 21:08 41.66456 -70.52183 130 ft 2 kts 176°
2026-04-30 21:08 41.66437 -70.52199 130 ft 6 kts 262°
2026-04-30 21:08 41.66429 -70.52300 130 ft 15 kts 265°
2026-04-30 21:09 41.66416 -70.52480 127 ft 23 kts 264°
2026-04-30 21:09 41.66404 -70.52652 125 ft 16 kts 264°
2026-04-30 21:09 41.66395 -70.52751 126 ft 8 kts 257°
2026-04-30 21:09 41.66384 -70.52780 128 ft 1 kts 164°
2026-04-30 21:10 41.66376 -70.52776 136 ft 1 kts 162°
2026-04-30 21:10 41.66313 -70.52763 137 ft 23 kts 160°
2026-04-30 21:10 41.66204 -70.52573 210 ft 35 kts 118°
2026-04-30 21:10 41.66274 -70.52121 370 ft 71 kts 67°
2026-04-30 21:11 41.66772 -70.51632 545 ft 106 kts 22°
2026-04-30 21:11 41.67528 -70.51311 675 ft 124 kts 14°
2026-04-30 21:11 41.68431 -70.51028 616 ft 132 kts 20°
2026-04-30 21:11 41.69280 -70.50513 698 ft 136 kts 27°
2026-04-30 21:12 41.70109 -70.49950 855 ft 135 kts 25°
2026-04-30 21:12 41.70982 -70.49380 832 ft 145 kts 24°
2026-04-30 21:12 41.71909 -70.48804 676 ft 145 kts 22°
2026-04-30 21:12 41.72803 -70.48227 624 ft 142 kts 28°
2026-04-30 21:13 41.73665 -70.47622 627 ft 138 kts 27°
2026-04-30 21:13 41.74517 -70.47025 600 ft 137 kts 27°
2026-04-30 21:13 41.75364 -70.46426 610 ft 138 kts 27°
2026-04-30 21:13 41.76215 -70.45829 611 ft 138 kts 27°
2026-04-30 21:14 41.77062 -70.45236 615 ft 137 kts 27°
2026-04-30 21:14 41.77913 -70.44635 616 ft 138 kts 27°
2026-04-30 21:14 41.78760 -70.44034 627 ft 139 kts 27°
2026-04-30 21:14 41.79610 -70.43430 618 ft 138 kts 27°
2026-04-30 21:15 41.80456 -70.42826 618 ft 137 kts 27°
2026-04-30 21:15 41.81307 -70.42216 622 ft 138 kts 27°
2026-04-30 21:15 41.82158 -70.41615 627 ft 138 kts 27°
2026-04-30 21:15 41.83005 -70.41016 621 ft 137 kts 27°
2026-04-30 21:16 41.83853 -70.40407 617 ft 139 kts 27°
2026-04-30 21:16 41.84699 -70.39799 620 ft 138 kts 27°
2026-04-30 21:16 41.85549 -70.39194 624 ft 139 kts 27°
2026-04-30 21:16 41.86398 -70.38587 623 ft 139 kts 27°
2026-04-30 21:17 41.87245 -70.37969 619 ft 139 kts 27°
2026-04-30 21:17 41.88091 -70.37358 619 ft 137 kts 27°
2026-04-30 21:17 41.88943 -70.36748 623 ft 140 kts 27°
2026-04-30 21:17 41.89804 -70.36178 623 ft 141 kts 24°
2026-04-30 21:18 41.90683 -70.35636 624 ft 140 kts 24°
2026-04-30 21:18 41.91559 -70.35101 627 ft 136 kts 24°
2026-04-30 21:18 41.92435 -70.34563 630 ft 137 kts 24°
2026-04-30 21:18 41.93302 -70.34024 622 ft 137 kts 24°
2026-04-30 21:19 41.94173 -70.33489 621 ft 137 kts 24°
2026-04-30 21:19 41.95036 -70.32964 626 ft 137 kts 24°
2026-04-30 21:19 41.95901 -70.32435 628 ft 136 kts 24°
2026-04-30 21:19 41.96764 -70.31904 626 ft 137 kts 24°
2026-04-30 21:20 41.97627 -70.31373 622 ft 136 kts 24°
2026-04-30 21:20 41.98490 -70.30842 614 ft 137 kts 24°
2026-04-30 21:20 41.99354 -70.30309 617 ft 136 kts 24°
2026-04-30 21:20 42.00219 -70.29779 617 ft 136 kts 24°
2026-04-30 21:21 42.01086 -70.29245 621 ft 136 kts 24°
2026-04-30 21:21 42.01947 -70.28710 617 ft 137 kts 24°
2026-04-30 21:21 42.03681 -70.27641 622 ft 137 kts 24°
2026-04-30 21:22 42.04549 -70.27108 613 ft 137 kts 24°
2026-04-30 21:22 42.07137 -70.25506 612 ft 136 kts 24°
2026-04-30 21:23 42.08005 -70.24969 610 ft 137 kts 24°
2026-04-30 21:23 42.08869 -70.24434 610 ft 137 kts 24°
2026-04-30 21:23 42.10593 -70.23360 617 ft 137 kts 24°
2026-04-30 21:24 42.11451 -70.22813 609 ft 136 kts 24°
2026-04-30 21:24 42.12311 -70.22267 611 ft 138 kts 24°
2026-04-30 21:24 42.13172 -70.21724 612 ft 137 kts 24°
2026-04-30 21:24 42.14032 -70.21186 614 ft 136 kts 24°
2026-04-30 21:25 42.15741 -70.20100 609 ft 137 kts 24°
2026-04-30 21:25 42.16608 -70.19545 613 ft 139 kts 24°
2026-04-30 21:25 42.17474 -70.18985 611 ft 137 kts 24°
2026-04-30 21:26 42.19170 -70.17814 642 ft 136 kts 26°
2026-04-30 21:26 42.20015 -70.17214 635 ft 137 kts 26°
2026-04-30 21:27 42.21715 -70.16010 634 ft 140 kts 26°
2026-04-30 21:27 42.22572 -70.15411 632 ft 138 kts 26°
2026-04-30 21:27 42.23147 -70.15004 634 ft 138 kts 26°
2026-04-30 21:28 42.24830 -70.13816 638 ft 138 kts 26°
2026-04-30 21:28 42.25678 -70.13218 632 ft 138 kts 26°
2026-04-30 21:28 42.27373 -70.12013 630 ft 138 kts 26°
2026-04-30 21:29 42.28217 -70.11406 633 ft 137 kts 26°
2026-04-30 21:29 42.30741 -70.09616 634 ft 139 kts 26°
2026-04-30 21:30 42.32452 -70.08403 632 ft 140 kts 26°
2026-04-30 21:31 42.35000 -70.06568 631 ft 137 kts 26°
2026-04-30 21:31 42.36696 -70.05335 641 ft 138 kts 26°
2026-04-30 21:32 42.38408 -70.04121 635 ft 139 kts 25°
2026-04-30 21:32 42.39270 -70.03530 631 ft 139 kts 25°
2026-04-30 21:32 42.40134 -70.02936 631 ft 139 kts 25°
2026-04-30 21:32 42.40993 -70.02348 633 ft 138 kts 25°
2026-04-30 21:33 42.41851 -70.01761 638 ft 138 kts 25°
2026-04-30 21:33 42.43562 -70.00578 640 ft 139 kts 25°
2026-04-30 21:33 42.44417 -69.99978 637 ft 139 kts 25°
2026-04-30 21:34 42.45275 -69.99382 635 ft 137 kts 25°
2026-04-30 21:34 42.46992 -69.98198 633 ft 138 kts 25°
2026-04-30 21:34 42.47855 -69.97609 634 ft 140 kts 25°
2026-04-30 21:35 42.48718 -69.97021 629 ft 138 kts 25°
2026-04-30 21:35 42.49581 -69.96437 634 ft 138 kts 25°
2026-04-30 21:35 42.50443 -69.95846 636 ft 139 kts 25°
2026-04-30 21:35 42.51305 -69.95254 638 ft 138 kts 25°
2026-04-30 21:36 42.52158 -69.94665 627 ft 140 kts 25°
2026-04-30 21:36 42.53018 -69.94069 628 ft 139 kts 25°
2026-04-30 21:37 42.55602 -69.92285 626 ft 139 kts 25°
2026-04-30 21:37 42.56461 -69.91700 634 ft 138 kts 25°
2026-04-30 21:37 42.57322 -69.91114 626 ft 138 kts 25°
2026-04-30 21:37 42.58189 -69.90523 625 ft 140 kts 25°
2026-04-30 21:38 42.59056 -69.89935 629 ft 139 kts 25°
2026-04-30 21:38 42.59918 -69.89344 633 ft 138 kts 25°
2026-04-30 21:38 42.60779 -69.88751 629 ft 139 kts 25°
2026-04-30 21:38 42.61643 -69.88153 628 ft 139 kts 25°
2026-04-30 21:39 42.62501 -69.87559 629 ft 140 kts 25°
2026-04-30 21:39 42.63361 -69.86963 630 ft 139 kts 25°
2026-04-30 21:39 42.64219 -69.86368 639 ft 138 kts 25°
2026-04-30 21:39 42.65087 -69.85774 639 ft 139 kts 25°
2026-04-30 21:40 42.65957 -69.85178 629 ft 140 kts 25°
2026-04-30 21:40 42.66829 -69.84587 635 ft 140 kts 25°
2026-04-30 21:40 42.67699 -69.83995 625 ft 141 kts 25°
2026-04-30 21:40 42.68570 -69.83397 636 ft 139 kts 25°
2026-04-30 21:41 42.69432 -69.82806 639 ft 138 kts 25°
2026-04-30 21:41 42.70298 -69.82215 627 ft 138 kts 25°
2026-04-30 21:41 42.71162 -69.81621 632 ft 138 kts 25°
2026-04-30 21:41 42.72027 -69.81026 638 ft 138 kts 25°
2026-04-30 21:42 42.72889 -69.80431 635 ft 137 kts 25°
2026-04-30 21:42 42.73754 -69.79838 635 ft 140 kts 25°
2026-04-30 21:42 42.74627 -69.79247 623 ft 139 kts 25°
2026-04-30 21:42 42.75496 -69.78655 623 ft 139 kts 25°
2026-04-30 21:43 42.76364 -69.78067 624 ft 140 kts 25°
2026-04-30 21:43 42.77233 -69.77480 626 ft 140 kts 25°
2026-04-30 21:43 42.78099 -69.76892 626 ft 139 kts 25°
2026-04-30 21:43 42.78965 -69.76298 625 ft 139 kts 25°
2026-04-30 21:44 42.79830 -69.75704 625 ft 141 kts 25°
2026-04-30 21:44 42.80699 -69.75109 596 ft 138 kts 25°
2026-04-30 21:44 42.81567 -69.74522 513 ft 137 kts 25°
2026-04-30 21:44 42.82412 -69.73955 477 ft 140 kts 25°
2026-04-30 21:45 42.83279 -69.73375 463 ft 124 kts 25°
2026-04-30 21:45 42.84062 -69.72843 498 ft 133 kts 25°
2026-04-30 21:45 42.84921 -69.72273 453 ft 139 kts 25°
2026-04-30 21:45 42.85783 -69.71693 434 ft 137 kts 25°
2026-04-30 21:46 42.86623 -69.71124 474 ft 133 kts 25°
2026-04-30 21:46 42.87434 -69.70577 502 ft 128 kts 25°
2026-04-30 21:46 42.88225 -69.70042 533 ft 126 kts 25°
2026-04-30 21:46 42.89001 -69.69504 545 ft 125 kts 25°
2026-04-30 21:47 42.89776 -69.68970 546 ft 125 kts 24°
2026-04-30 21:47 42.90554 -69.68440 533 ft 124 kts 22°
2026-04-30 21:47 42.91325 -69.68375 632 ft 105 kts 330°
2026-04-30 21:47 42.91725 -69.69088 645 ft 93 kts 264°
2026-04-30 21:48 42.91379 -69.69772 631 ft 97 kts 196°
2026-04-30 21:48 42.90677 -69.69733 581 ft 107 kts 174°
2026-04-30 21:48 42.89927 -69.69562 585 ft 108 kts 175°
2026-04-30 21:48 42.89270 -69.69627 543 ft 89 kts 210°
2026-04-30 21:49 42.88731 -69.69987 502 ft 84 kts 212°
2026-04-30 21:49 42.88252 -69.70342 547 ft 74 kts 214°
2026-04-30 21:49 42.87769 -69.70650 484 ft 80 kts 211°
2026-04-30 21:49 42.87286 -69.70984 527 ft 78 kts 211°
2026-04-30 21:50 42.86810 -69.71280 1215 ft 72 kts 211°
2026-04-30 21:50 42.86323 -69.71576 980 ft 76 kts 211°
2026-04-30 21:50 42.85831 -69.71884 917 ft 77 kts 212°
2026-04-30 21:50 42.85362 -69.72212 688 ft 73 kts 215°
2026-04-30 21:51 42.84913 -69.72500 410 ft 71 kts 205°
2026-04-30 21:51 42.84478 -69.72745 310 ft 62 kts 210°
2026-04-30 21:51 42.84092 -69.72990 320 ft 62 kts 214°
2026-04-30 21:51 42.83678 -69.73277 328 ft 73 kts 213°
2026-04-30 21:52 42.83199 -69.73620 328 ft 81 kts 213°
2026-04-30 21:52 42.82704 -69.73990 456 ft 81 kts 213°
2026-04-30 21:52 42.82209 -69.74355 376 ft 81 kts 213°
2026-04-30 21:52 42.81709 -69.74718 357 ft 82 kts 213°
2026-04-30 21:53 42.81209 -69.75091 349 ft 82 kts 213°
2026-04-30 21:53 42.80706 -69.75461 344 ft 82 kts 213°
2026-04-30 21:53 42.80191 -69.75812 340 ft 84 kts 211°
2026-04-30 21:53 42.79675 -69.76133 337 ft 81 kts 211°
2026-04-30 21:54 42.79161 -69.76454 338 ft 81 kts 211°
2026-04-30 21:54 42.78647 -69.76781 339 ft 82 kts 211°
2026-04-30 21:54 42.78131 -69.77109 336 ft 82 kts 211°
2026-04-30 21:54 42.77615 -69.77436 337 ft 81 kts 211°
2026-04-30 21:55 42.77101 -69.77758 336 ft 81 kts 211°
2026-04-30 21:55 42.76587 -69.78084 334 ft 82 kts 211°
2026-04-30 21:55 42.76071 -69.78413 334 ft 82 kts 211°
2026-04-30 21:55 42.75553 -69.78744 336 ft 82 kts 211°
2026-04-30 21:56 42.74979 -69.78766 327 ft 93 kts 163°
2026-04-30 21:56 42.74605 -69.78015 339 ft 95 kts 112°
2026-04-30 21:56 42.74735 -69.77251 326 ft 83 kts 49°
2026-04-30 21:56 42.75249 -69.76837 338 ft 89 kts 30°
2026-04-30 21:57 42.75768 -69.76397 340 ft 88 kts 30°
2026-04-30 21:57 42.76292 -69.75957 339 ft 89 kts 30°
2026-04-30 21:57 42.76818 -69.75514 333 ft 89 kts 30°
2026-04-30 21:57 42.77341 -69.75067 338 ft 89 kts 30°
2026-04-30 21:58 42.77862 -69.74624 338 ft 88 kts 30°
2026-04-30 21:58 42.78394 -69.74195 336 ft 89 kts 27°
2026-04-30 21:58 42.78946 -69.73828 339 ft 86 kts 23°
2026-04-30 21:58 42.79489 -69.73463 333 ft 88 kts 23°
2026-04-30 21:59 42.80033 -69.73107 335 ft 88 kts 23°
2026-04-30 21:59 42.80586 -69.72742 334 ft 89 kts 23°
2026-04-30 21:59 42.81137 -69.72385 338 ft 87 kts 23°
2026-04-30 22:00 42.82236 -69.71666 341 ft 87 kts 23°
2026-04-30 22:00 42.83337 -69.70953 338 ft 87 kts 23°
2026-04-30 22:00 42.83889 -69.70602 339 ft 88 kts 23°
2026-04-30 22:01 42.84441 -69.70243 334 ft 88 kts 23°
2026-04-30 22:01 42.84989 -69.69888 334 ft 87 kts 23°
2026-04-30 22:01 42.85534 -69.69531 337 ft 86 kts 23°
2026-04-30 22:01 42.86079 -69.69176 335 ft 87 kts 23°
2026-04-30 22:02 42.86629 -69.68823 336 ft 88 kts 23°
2026-04-30 22:02 42.87182 -69.68464 336 ft 88 kts 23°
2026-04-30 22:02 42.87734 -69.68088 337 ft 89 kts 23°
2026-04-30 22:02 42.88274 -69.67724 337 ft 87 kts 23°
2026-04-30 22:03 42.88820 -69.67362 339 ft 88 kts 23°
2026-04-30 22:03 42.89382 -69.67058 326 ft 87 kts
2026-04-30 22:03 42.89923 -69.67417 326 ft 91 kts 309°
2026-04-30 22:03 42.90147 -69.68179 342 ft 74 kts 289°
2026-04-30 22:04 42.90350 -69.68882 336 ft 76 kts 291°
2026-04-30 22:04 42.90552 -69.69566 338 ft 77 kts 291°
2026-04-30 22:04 42.90959 -69.70952 337 ft 76 kts 290°
2026-04-30 22:05 42.90849 -69.71540 323 ft 69 kts 233°
2026-04-30 22:05 42.90347 -69.71699 336 ft 86 kts 200°
2026-04-30 22:05 42.89740 -69.72033 340 ft 88 kts 209°
2026-04-30 22:05 42.89221 -69.72353 337 ft 82 kts 209°
2026-04-30 22:06 42.88708 -69.72664 340 ft 81 kts 209°
2026-04-30 22:06 42.87670 -69.73298 342 ft 83 kts 209°
2026-04-30 22:06 42.87148 -69.73623 337 ft 82 kts 209°
2026-04-30 22:07 42.86622 -69.73938 340 ft 83 kts 209°
2026-04-30 22:07 42.86097 -69.74264 338 ft 81 kts 209°
2026-04-30 22:07 42.85578 -69.74575 338 ft 82 kts 209°
2026-04-30 22:07 42.85061 -69.74897 337 ft 82 kts 209°
2026-04-30 22:08 42.84543 -69.75223 334 ft 82 kts 209°
2026-04-30 22:08 42.84021 -69.75544 333 ft 82 kts 209°
2026-04-30 22:08 42.83499 -69.75873 337 ft 83 kts 209°
2026-04-30 22:08 42.82977 -69.76192 335 ft 82 kts 209°
2026-04-30 22:09 42.82458 -69.76509 340 ft 81 kts 209°
2026-04-30 22:09 42.81948 -69.76813 337 ft 81 kts 209°
2026-04-30 22:09 42.81436 -69.77145 336 ft 80 kts 211°
2026-04-30 22:09 42.80932 -69.77482 337 ft 82 kts 211°
2026-04-30 22:10 42.80425 -69.77811 341 ft 82 kts 211°
2026-04-30 22:10 42.79913 -69.78156 338 ft 82 kts 211°
2026-04-30 22:10 42.79398 -69.78496 341 ft 83 kts 211°
2026-04-30 22:10 42.78886 -69.78841 337 ft 82 kts 211°
2026-04-30 22:11 42.77863 -69.79524 336 ft 81 kts 211°
2026-04-30 22:11 42.77352 -69.79860 340 ft 82 kts 211°
2026-04-30 22:11 42.76840 -69.80201 342 ft 82 kts 211°
2026-04-30 22:12 42.76325 -69.80540 337 ft 83 kts 211°
2026-04-30 22:12 42.75811 -69.80878 338 ft 82 kts 211°
2026-04-30 22:12 42.75245 -69.81051 322 ft 96 kts 178°
2026-04-30 22:12 42.74756 -69.80373 326 ft 112 kts 113°
2026-04-30 22:13 42.74592 -69.79436 343 ft 87 kts 105°
2026-04-30 22:13 42.74449 -69.78603 348 ft 90 kts 105°
2026-04-30 22:13 42.74354 -69.78054 342 ft 90 kts 105°
2026-04-30 22:13 42.74259 -69.77209 324 ft 95 kts 87°
2026-04-30 22:14 42.74722 -69.76534 335 ft 105 kts 22°
2026-04-30 22:14 42.75310 -69.76200 355 ft 85 kts 20°
2026-04-30 22:14 42.75869 -69.75882 337 ft 86 kts 20°
2026-04-30 22:14 42.76424 -69.75562 342 ft 87 kts 21°
2026-04-30 22:15 42.76974 -69.75192 344 ft 87 kts 23°
2026-04-30 22:15 42.77518 -69.74822 339 ft 88 kts 23°
2026-04-30 22:15 42.78065 -69.74447 342 ft 87 kts 23°
2026-04-30 22:15 42.78600 -69.74080 341 ft 88 kts 23°
2026-04-30 22:16 42.79141 -69.73681 334 ft 91 kts 34°
2026-04-30 22:16 42.79453 -69.72926 341 ft 87 kts 63°
2026-04-30 22:17 42.80302 -69.70594 341 ft 90 kts 63°
2026-04-30 22:17 42.80582 -69.69827 336 ft 89 kts 63°
2026-04-30 22:17 42.80980 -69.68175 291 ft 88 kts 75°
2026-04-30 22:18 42.80848 -69.67633 169 ft 49 kts 153°
2026-04-30 22:18 42.80702 -69.67819 97 ft 13 kts 265°
2026-04-30 22:19 42.80699 -69.67927 75 ft 7 kts 259°
2026-04-30 22:19 42.80697 -69.68008 62 ft 3 kts 260°
2026-04-30 22:19 42.80703 -69.68010 29 ft 2 kts 266°
2026-04-30 22:20 42.80702 -69.67999 30 ft 4 kts 272°
2026-04-30 22:20 42.80708 -69.67993 24 ft 1 kts 282°
2026-04-30 22:20 42.80707 -69.67992 23 ft 1 kts 285°
2026-04-30 22:21 42.80706 -69.68015 22 ft 2 kts 287°
2026-04-30 22:21 42.80703 -69.68016 23 ft 4 kts 290°
2026-04-30 22:21 42.80694 -69.68011 47 ft 3 kts 291°
2026-04-30 22:21 42.80683 -69.67973 50 ft 2 kts 291°
2026-04-30 22:22 42.80681 -69.67966 42 ft 1 kts 291°
2026-04-30 22:22 42.80687 -69.67983 56 ft 6 kts 294°
2026-04-30 22:22 42.80691 -69.68002 54 ft 1 kts 297°
2026-04-30 22:22 42.80690 -69.68006 54 ft 0 kts 300°
2026-04-30 22:23 42.80690 -69.68002 56 ft 1 kts 301°
2026-04-30 22:23 42.80688 -69.67996 62 ft 1 kts 303°
2026-04-30 22:23 42.80747 -69.68190 180 ft 60 kts 292°
2026-04-30 22:23 42.80799 -69.68973 524 ft 107 kts 275°
2026-04-30 22:24 42.80847 -69.70127 461 ft 130 kts 273°
2026-04-30 22:24 42.80834 -69.71337 529 ft 131 kts 269°
2026-04-30 22:24 42.80800 -69.72639 524 ft 144 kts 268°
2026-04-30 22:24 42.80737 -69.74010 440 ft 144 kts 266°
2026-04-30 22:25 42.80677 -69.75364 484 ft 145 kts 266°
2026-04-30 22:25 42.80510 -69.76680 494 ft 138 kts 251°
2026-04-30 22:25 42.80140 -69.77930 501 ft 145 kts 250°
2026-04-30 22:25 42.79765 -69.79197 505 ft 146 kts 249°
2026-04-30 22:26 42.78907 -69.81707 507 ft 142 kts 246°
2026-04-30 22:26 42.78479 -69.82940 448 ft 142 kts 247°
2026-04-30 22:26 42.78085 -69.84185 555 ft 150 kts 250°
2026-04-30 22:27 42.77705 -69.85571 483 ft 160 kts 252°
2026-04-30 22:27 42.77315 -69.87034 519 ft 168 kts 252°
2026-04-30 22:27 42.76418 -69.89999 514 ft 169 kts 249°
2026-04-30 22:28 42.75484 -69.92918 518 ft 167 kts 249°
2026-04-30 22:28 42.75020 -69.94382 525 ft 170 kts 249°
2026-04-30 22:29 42.73589 -69.98765 525 ft 168 kts 248°
2026-04-30 22:29 42.73117 -70.00222 526 ft 169 kts 248°
2026-04-30 22:30 42.71222 -70.06040 531 ft 168 kts 248°
2026-04-30 22:31 42.69788 -70.10413 525 ft 168 kts 248°
2026-04-30 22:32 42.68357 -70.14789 525 ft 167 kts 248°
2026-04-30 22:32 42.67408 -70.17722 525 ft 170 kts 248°
2026-04-30 22:33 42.65950 -70.22109 523 ft 170 kts 247°
2026-04-30 22:33 42.64972 -70.25024 522 ft 170 kts 247°
2026-04-30 22:34 42.63510 -70.29401 520 ft 170 kts 247°
2026-04-30 22:35 42.62535 -70.32333 516 ft 171 kts 247°
2026-04-30 22:36 42.60568 -70.38200 516 ft 171 kts 248°
2026-04-30 22:36 42.60078 -70.39663 517 ft 169 kts 248°
2026-04-30 22:37 42.58613 -70.44054 515 ft 171 kts 248°
2026-04-30 22:37 42.58130 -70.45502 517 ft 170 kts 248°
2026-04-30 22:37 42.57149 -70.48440 512 ft 171 kts 248°
2026-04-30 22:38 42.56173 -70.51372 510 ft 170 kts 248°
2026-04-30 22:38 42.55194 -70.54313 509 ft 170 kts 248°
2026-04-30 22:39 42.54706 -70.55767 513 ft 171 kts 248°
2026-04-30 22:39 42.53228 -70.60177 510 ft 173 kts 248°
2026-04-30 22:40 42.51745 -70.64571 505 ft 171 kts 248°
2026-04-30 22:41 42.50258 -70.68983 505 ft 172 kts 248°
2026-04-30 22:41 42.49270 -70.71936 503 ft 172 kts 248°